Location: ????????
(38.4362°N, 22.8767°E)
Time: 00:17:34
(UTC+00:00)

COSMOS 2251 DEB - Visible Passes

Search period start: 16 September 2024 00:00
Search period end: 26 September 2024 00:00
Orbit: 750 x 789 km, 74.1° (Epoch: 15 September)

Date Brightness Start Highest point End Pass type
(mag) Time Alt. Az. Time Alt. Az. Time Alt. Az.
16 Sep ? 02:55:51 10° SSW 03:01:12 88° E 03:06:36 10° NNE visible
17 Sep ? 02:19:47 11° S 02:24:46 51° ESE 02:29:57 10° NNE visible
18 Sep ? 01:45:04 16° SSE 01:48:25 30° E 01:53:01 10° NE visible
18 Sep ? 03:25:38 10° SW 03:30:23 32° WNW 03:35:10 10° N visible
19 Sep ? 01:10:11 14° ESE 01:12:09 17° E 01:15:33 10° NE visible
19 Sep ? 02:50:33 23° SW 02:53:44 53° WNW 02:58:59 10° N visible
20 Sep ? 02:15:32 47° SSW 02:17:10 90° E 02:22:33 10° NNE visible
21 Sep ? 01:40:25 51° ESE 01:40:43 52° ESE 01:45:54 10° NNE visible
21 Sep ? 03:20:46 15° W 03:23:07 19° WNW 03:26:56 10° NNW visible
22 Sep ? 01:05:12 28° E 01:05:12 28° E 01:08:56 10° NE visible
22 Sep ? 02:45:33 30° W 02:46:19 31° WNW 02:51:04 10° N visible
23 Sep ? 00:29:55 15° ENE 00:29:55 15° ENE 00:31:28 10° NE visible
23 Sep ? 02:10:15 50° NW 02:10:15 50° NW 02:14:52 10° N visible
24 Sep ? 01:34:52 43° NNE 01:34:52 43° NNE 01:38:25 10° NNE visible
24 Sep ? 03:15:12 11° WNW 03:15:54 12° NW 03:17:45 10° NW visible
25 Sep ? 00:59:26 25° NE 00:59:26 25° NE 01:01:44 10° NNE visible
25 Sep ? 02:39:44 19° NW 02:39:44 19° NW 02:42:45 10° NNW visible
